Flag for Germany Weather past 2 weeks in Rheine, North Rhine-Westphalia, Germany

Now
37 °F

Chilly.


Feels Like: 31 °F
Forecast: 36 / 45 °F
Wind: 9 mph from Southwest

Location: Rheine-Bentlage

Current Time: Mar 3, 2015 at 4:34:59 AM

Latest Report: Mar 3, 2015 at 3:20 AM


Visibility: N/A

Pressure: 29.95 "Hg

Humidity: 75%

Dew point: 30 °F

Location of RheineLocation

Historic Weather in Rheine — Graph

°F

Rheine temperature yesterday

Maximum temperature yesterday: 46 °F (at 1:20 PM)
Minimum temperature yesterday: 34 °F (at 8:20 PM)
Average temperature yesterday: 41 °F

Past Weeks' High & Low Weather Summary

 TemperatureHumidityPressure
High52 °F (Mar 1, 12:20 PM)100% (Feb 16, 5:20 AM)30.74 "Hg (Feb 16, 5:20 AM)
Low27 °F (Feb 17, 3:20 AM)50% (Feb 28, 4:20 PM)29.30 "Hg (Feb 21, 5:20 AM)
Average39 °F84%29.90 "Hg
* Reported Feb 16 2:20 AM — Mar 3 2:20 AM, Rheine, Weather by CustomWeather, © 2015

Note: Actual official high and low records may vary slightly from our data, if they occured in-between our weather recording intervals... More about our weather records

Advertising

Rheine weather history for previous 24 hours

 ConditionsComfort  
Time TempWeatherWind HumidityBarometerVisibility
2:20 AM
Tue, Mar 3
37 °FChilly.10 mph75%29.95 "HgN/A
1:20 AM37 °FChilly.10 mph75%29.92 "HgN/A
12:20 AM36 °FChilly.9 mph81%29.89 "HgN/A
11:20 PM
Mon, Mar 2
37 °FChilly.14 mph75%29.86 "HgN/A
10:20 PM37 °FChilly.15 mph81%29.83 "HgN/A
9:20 PM36 °FChilly.10 mph93%29.80 "HgN/A
8:20 PM34 °FChilly.10 mph93%29.77 "HgN/A
7:20 PM36 °FChilly.9 mph87%29.74 "HgN/A
6:20 PM37 °FChilly.7 mph93%29.71 "HgN/A
5:20 PM36 °FChilly.10 mph93%29.68 "HgN/A
4:20 PM45 °FQuite cool.14 mph57%29.65 "HgN/A
3:20 PM45 °FScattered clouds.8 mph71%29.62 "HgN/A
2:20 PM43 °FSprinkles. Scattered clouds.8 mph76%29.62 "HgN/A
1:20 PM46 °FScattered clouds.16 mph57%29.62 "HgN/A
12:20 PM45 °FScattered clouds.18 mph61%29.59 "HgN/A
11:20 AM45 °FScattered clouds.21 mph61%29.59 "HgN/A
10:20 AM43 °FPassing clouds.20 mph66%29.56 "HgN/A
9:20 AM41 °FPassing clouds.15 mph70%29.56 "HgN/A
8:20 AM39 °FPassing clouds.14 mph75%29.53 "HgN/A
7:20 AM39 °FScattered clouds.12 mph75%29.50 "HgN/A
6:20 AM39 °FPassing clouds.14 mph75%29.50 "HgN/A
5:20 AM41 °FPassing clouds.13 mph76%29.47 "HgN/A
4:20 AM41 °FQuite cool.15 mph76%29.45 "HgN/A
Weather by CustomWeather, © 2015

See weather overviewHow to use our weather pages